sat.trackr.live / text

‹ back to catalog

COSMOS 2608

NORAD 67682 · 2026-023J

PAYLOAD ACTIVE UNKNOWN

§ Identity

Operator
Country
CIS
Launch date
2026-02-05
Launch site
PLMSC
Launch vehicle
Mass (kg)
RCS (m²)

External: N2YO · Heavens-Above · Gunter

§ Orbital elements

Epoch: 2026-05-25T03:15:05.911776Z

Period
94.43 min
Inclination
96.6266°
Eccentricity
0.0021242
Mean motion
15.24873932 rev/d
Perigee alt
476.6 km
Apogee alt
505.8 km
Semi-major
6,869.3 km
B*
4.1334e-4
RAAN
211.8047°
Arg perigee
196.4411°
Mean anomaly
163.6143°
Rev number
1,648

§ Raw data

COSMOS 26081 67682U 26023J   26145.13548509  .00010284  00000+0  41334-3 0  99972 67682  96.6266 211.8047 0021242 196.4411 163.6143 15.24873932 16483

JSON: /api/v1/satellites/67682 · /tle

For live sub-satellite position, see the globe view (requires WebGL).

§ Visibility from observer

Set your observer location to see the next 7 days of passes ≥ 10°. The values pass through the URL so the page stays shareable.

No JS? Fill the form by hand. The geolocation button needs JavaScript.